When you browse on this site, cookies collect data to enhance your experience and personalize the content and advertising you see.
Visit our Privacy Policy to learn more. By continuing to use the site, you agree to this use of cookies and data.
  • En España
  • Lista de países
  • Para 7 días
  • Temperatura del agua
  • El tiempo en el mapa
  • Informadores
  • user-avatar
    Iniciar sesión

    Tiempo cada hora Quilpué

    Hoy, 22 Enero, Miércoles

    Tiempo Temperatura Precipitaciones Viento Presión Humedad
    00:00 +13°C° 0 mm 1 mps 747 mmHg 94%
    01:00 +13°C° 0 mm 1 mps 747 mmHg 94%
    02:00 +13°C° 0 mm 1 mps 748 mmHg 95%
    03:00 +14°C° 0 mm 2 mps 748 mmHg 95%
    04:00 +15°C° 0 mm 2 mps 748 mmHg 95%
    05:00 +16°C° 0 mm 2 mps 748 mmHg 91%
    06:00 +17°C° 0 mm 2 mps 748 mmHg 86%
    07:00 +18°C° 0 mm 2 mps 749 mmHg 82%
    08:00 +20°C° 0 mm 3 mps 749 mmHg 73%
    09:00 +23°C° 0 mm 4 mps 749 mmHg 64%
    10:00 +26°C° 0 mm 4 mps 749 mmHg 54%
    11:00 +26°C° 0 mm 4 mps 749 mmHg 53%
    12:00 +27°C° 0 mm 5 mps 749 mmHg 52%
    13:00 +27°C° 0 mm 5 mps 749 mmHg 51%
    14:00 +26°C° 0 mm 4 mps 749 mmHg 54%
    15:00 +25°C° 0 mm 4 mps 749 mmHg 57%
    16:00 +23°C° 0 mm 4 mps 749 mmHg 59%
    17:00 +21°C° 0 mm 3 mps 749 mmHg 70%
    18:00 +18°C° 0 mm 2 mps 749 mmHg 80%
    19:00 +16°C° 0 mm 1 mps 749 mmHg 91%
    20:00 +15°C° 0 mm 1 mps 749 mmHg 93%
    21:00 +14°C° 0 mm 1 mps 749 mmHg 94%
    22:00 +12°C° 0 mm 0 mps 750 mmHg 96%
    23:00 +14°C° 0 mm 1 mps 750 mmHg 96%

    Mañana, 23 Enero, Jueves

    Tiempo Temperatura Precipitaciones Viento Presión Humedad
    00:00 +14°C° 0 mm 1 mps 749 mmHg 96%
    01:00 +14°C° 0 mm 1 mps 749 mmHg 96%
    02:00 +14°C° 0 mm 1 mps 750 mmHg 95%
    03:00 +15°C° 0 mm 1 mps 750 mmHg 94%
    04:00 +15°C° 0 mm 1 mps 751 mmHg 94%
    05:00 +16°C° 0 mm 1 mps 751 mmHg 88%
    06:00 +19°C° 0 mm 1 mps 751 mmHg 81%
    07:00 +20°C° 0 mm 1 mps 751 mmHg 75%
    08:00 +21°C° 0 mm 2 mps 751 mmHg 67%
    09:00 +24°C° 0 mm 3 mps 751 mmHg 59%
    10:00 +26°C° 0 mm 4 mps 752 mmHg 51%
    11:00 +27°C° 0 mm 4 mps 751 mmHg 48%
    12:00 +28°C° 0 mm 4 mps 751 mmHg 46%
    13:00 +28°C° 0 mm 4 mps 751 mmHg 43%
    14:00 +28°C° 0 mm 3 mps 751 mmHg 44%
    15:00 +27°C° 0 mm 3 mps 751 mmHg 45%
    16:00 +26°C° 0 mm 3 mps 750 mmHg 46%
    17:00 +24°C° 0 mm 2 mps 750 mmHg 58%
    18:00 +21°C° 0 mm 1 mps 750 mmHg 70%
    19:00 +18°C° 0 mm 1 mps 750 mmHg 82%
    20:00 +16°C° 0 mm 1 mps 750 mmHg 85%
    21:00 +16°C° 0 mm 1 mps 750 mmHg 88%
    22:00 +14°C° 0 mm 0 mps 750 mmHg 91%
    23:00 +14°C° 0 mm 0 mps 750 mmHg 91%

    Pasado mañana, 24 Enero, Viernes

    Tiempo Temperatura Precipitaciones Viento Presión Humedad
    00:00 +14°C° 0 mm 0 mps 750 mmHg 91%
    01:00 +13°C° 0 mm 0 mps 750 mmHg 91%
    02:00 +13°C° 0 mm 0 mps 750 mmHg 91%
    03:00 +13°C° 0 mm 0 mps 750 mmHg 90%
    04:00 +13°C° 0 mm 0 mps 750 mmHg 90%
    05:00 +15°C° 0 mm 0 mps 750 mmHg 81%
    06:00 +17°C° 0 mm 0 mps 751 mmHg 73%
    07:00 +19°C° 0 mm 0 mps 751 mmHg 65%
    08:00 +24°C° 0 mm 1 mps 751 mmHg 57%
    09:00 +26°C° 0 mm 2 mps 751 mmHg 50%
    10:00 +28°C° 0 mm 3 mps 751 mmHg 42%
    11:00 +29°C° 0 mm 3 mps 751 mmHg 41%
    12:00 +29°C° 0 mm 3 mps 751 mmHg 41%
    13:00 +29°C° 0 mm 4 mps 751 mmHg 41%
    14:00 +28°C° 0 mm 4 mps 751 mmHg 42%
    15:00 +28°C° 0 mm 3 mps 751 mmHg 44%
    16:00 +27°C° 0 mm 3 mps 750 mmHg 45%
    17:00 +24°C° 0 mm 2 mps 750 mmHg 58%
    18:00 +20°C° 0 mm 2 mps 751 mmHg 70%
    19:00 +18°C° 0 mm 1 mps 751 mmHg 83%
    20:00 +16°C° 0 mm 1 mps 751 mmHg 85%
    21:00 +15°C° 0 mm 1 mps 751 mmHg 87%
    22:00 +13°C° 0 mm 0 mps 750 mmHg 89%
    23:00 +13°C° 0 mm 0 mps 750 mmHg 89%

    25 Enero, Sábado

    Tiempo Temperatura Precipitaciones Viento Presión Humedad
    00:00 +12°C° 0 mm 0 mps 750 mmHg 90%
    01:00 +12°C° 0 mm 0 mps 750 mmHg 90%
    02:00 +12°C° 0 mm 0 mps 750 mmHg 91%
    03:00 +13°C° 0 mm 1 mps 750 mmHg 91%
    04:00 +13°C° 0 mm 1 mps 750 mmHg 92%
    05:00 +15°C° 0 mm 1 mps 750 mmHg 83%
    06:00 +19°C° 0 mm 1 mps 750 mmHg 74%
    07:00 +22°C° 0 mm 1 mps 751 mmHg 65%
    08:00 +24°C° 0 mm 1 mps 751 mmHg 57%
    09:00 +27°C° 0 mm 2 mps 751 mmHg 49%
    10:00 +29°C° 0 mm 3 mps 751 mmHg 41%
    11:00 +30°C° 0 mm 3 mps 751 mmHg 39%
    12:00 +30°C° 0 mm 3 mps 751 mmHg 37%
    13:00 +32°C° 0 mm 4 mps 750 mmHg 35%
    14:00 +30°C° 0 mm 3 mps 750 mmHg 35%
    15:00 +29°C° 0 mm 3 mps 750 mmHg 36%
    16:00 +28°C° 0 mm 3 mps 750 mmHg 37%
    17:00 +25°C° 0 mm 3 mps 750 mmHg 48%
    18:00 +20°C° 0 mm 2 mps 750 mmHg 60%
    19:00 +16°C° 0 mm 1 mps 751 mmHg 71%
    20:00 +15°C° 0 mm 1 mps 751 mmHg 73%
    21:00 +14°C° 0 mm 1 mps 751 mmHg 74%
    22:00 +12°C° 0 mm 0 mps 751 mmHg 75%
    23:00 +12°C° 0 mm 0 mps 750 mmHg 76%

    26 Enero, Domingo

    Tiempo Temperatura Precipitaciones Viento Presión Humedad
    00:00 +12°C° 0 mm 0 mps 750 mmHg 77%
    01:00 +12°C° 0 mm 0 mps 750 mmHg 78%
    02:00 +12°C° 0 mm 0 mps 750 mmHg 80%
    03:00 +12°C° 0 mm 1 mps 750 mmHg 81%
    04:00 +12°C° 0 mm 1 mps 750 mmHg 83%
    05:00 +15°C° 0 mm 1 mps 751 mmHg 75%
    06:00 +19°C° 0 mm 1 mps 751 mmHg 66%
    07:00 +20°C° 0 mm 2 mps 751 mmHg 58%
    08:00 +24°C° 0 mm 2 mps 752 mmHg 50%
    09:00 +26°C° 0 mm 3 mps 752 mmHg 42%
    10:00 +29°C° 0 mm 3 mps 752 mmHg 35%
    11:00 +29°C° 0 mm 3 mps 752 mmHg 34%
    12:00 +30°C° 0 mm 4 mps 752 mmHg 33%
    13:00 +30°C° 0 mm 4 mps 752 mmHg 32%
    14:00 +29°C° 0 mm 4 mps 752 mmHg 36%
    15:00 +28°C° 0 mm 3 mps 751 mmHg 39%
    16:00 +28°C° 0 mm 3 mps 751 mmHg 43%
    17:00 +24°C° 0 mm 3 mps 751 mmHg 57%
    18:00 +20°C° 0 mm 2 mps 751 mmHg 71%
    19:00 +17°C° 0 mm 2 mps 751 mmHg 84%
    20:00 +16°C° 0 mm 2 mps 751 mmHg 86%
    21:00 +16°C° 0 mm 2 mps 751 mmHg 87%
    22:00 +15°C° 0 mm 2 mps 751 mmHg 89%
    23:00 +15°C° 0 mm 2 mps 751 mmHg 89%

    27 Enero, Lunes

    Tiempo Temperatura Precipitaciones Viento Presión Humedad
    00:00 +15°C° 0 mm 2 mps 750 mmHg 89%
    01:00 +14°C° 0 mm 2 mps 750 mmHg 88%
    02:00 +14°C° 0 mm 1 mps 750 mmHg 88%
    03:00 +14°C° 0 mm 1 mps 750 mmHg 88%
    04:00 +14°C° 0 mm 1 mps 750 mmHg 87%
    05:00 +16°C° 0 mm 1 mps 750 mmHg 80%
    06:00 +20°C° 0 mm 1 mps 750 mmHg 72%
    07:00 +22°C° 0 mm 1 mps 750 mmHg 65%
    08:00 +24°C° 0 mm 2 mps 750 mmHg 59%
    09:00 +26°C° 0 mm 3 mps 750 mmHg 53%
    10:00 +28°C° 0 mm 3 mps 750 mmHg 47%
    11:00 +28°C° 0 mm 4 mps 750 mmHg 47%
    12:00 +29°C° 0 mm 4 mps 750 mmHg 47%
    13:00 +29°C° 0 mm 4 mps 750 mmHg 47%
    14:00 +28°C° 0 mm 4 mps 750 mmHg 50%
    15:00 +27°C° 0 mm 3 mps 750 mmHg 53%
    16:00 +26°C° 0 mm 3 mps 750 mmHg 56%
    17:00 +24°C° 0 mm 2 mps 750 mmHg 67%
    18:00 +20°C° 0 mm 2 mps 750 mmHg 79%
    19:00 +18°C° 0 mm 1 mps 750 mmHg 90%
    20:00 +18°C° 0 mm 1 mps 750 mmHg 92%
    21:00 +16°C° 0 mm 1 mps 750 mmHg 93%
    22:00 +15°C° 0 mm 1 mps 750 mmHg 94%
    23:00 +15°C° 0 mm 1 mps 750 mmHg 94%
    Mostrar más